Weather History for Al Udeid, Qatar

Change the Weather History Date:

Tuesday, November 15, 2011

  Actual Average Record
Temperature  
Mean Temperature 76 °F -  
Max Temperature 87 °F - - ()
Min Temperature 64 °F - - ()
Cooling Degree Days 10    
Growing Degree Days 26 (Base 50)    
Moisture  
Dew Point 63 °F    
Average Humidity 69    
Maximum Humidity 97    
Minimum Humidity 33    
Precipitation  
Precipitation 0.00 in - - ()
Sea Level Pressure  
Sea Level Pressure 29.99 in    
Wind  
Wind Speed 6 mph ()    
Max Wind Speed 10 mph    
Max Gust Speed 22 mph    
Visibility 6.1 miles    
Events      
T = Trace of Precipitation, MM = Missing Value Source: Averaged Metar Reports

Daily Weather History Graph

Daily Weather History Graph

Search for Another Location

Airport:

Trip Planner

Search our weather history database for the weather conditions in past years. The results will help you decide how hot, cold, wet, or windy it might be!

Date:

Astronomy

Nov. 15, 2011 Rise Set
Actual Time 5:51 AM AST 4:46 PM AST
Civil Twilight 5:27 AM AST 5:11 PM AST
Nautical Twilight 4:59 AM AST 5:38 PM AST
Astronomical Twilight 4:32 AM AST 6:06 PM AST
Moon 8:34 PM AST (11/15) 9:29 AM AST (11/15)
Length of Visible Light 11h 44m
Length of Day
10h 55m
Waning Gibbous, 82% of the Moon is Illuminated
Nov 15
Waning Gibbous
Nov 18
Last Quarter
Nov 25
New
Dec 2
First Quarter
Dec 10
Full

Hourly Weather History & Observations

Time (AST) Temp. Heat Index Dew Point Humidity Pressure Visibility Wind Dir Wind Speed Gust Speed Precip Events Conditions
12:55 AM 70.2 °F - 64.0 °F 81% 29.97 in 6.2 mi East 5.8 mph - N/A   Clear
1:55 AM 67.6 °F - 64.0 °F 88% 29.97 in 6.2 mi East 5.8 mph - N/A   Clear
2:55 AM 68.0 °F - 65.3 °F 91% 29.97 in 6.2 mi NE 3.5 mph - N/A   Clear
3:55 AM 67.1 °F - 64.8 °F 92% 29.98 in 6.2 mi East 4.6 mph - N/A   Clear
4:55 AM 66.7 °F - 64.6 °F 93% 29.98 in 6.2 mi East 4.6 mph - N/A   Clear
5:55 AM 65.7 °F - 64.8 °F 97% 30.00 in 5.0 mi East 6.9 mph - N/A   Partly Cloudy
6:55 AM 64.4 °F - 63.1 °F 96% 30.01 in 5.6 mi ESE 3.5 mph - N/A   Partly Cloudy
7:55 AM 71.2 °F - 65.7 °F 82% 30.03 in 6.2 mi ESE 4.6 mph - N/A   Clear
8:55 AM 78.4 °F - 67.5 °F 69% 30.05 in 6.2 mi East 8.1 mph - N/A   Clear
9:55 AM 83.1 °F 84.8 °F 64.9 °F 54% 30.04 in 6.2 mi East 8.1 mph - N/A   Clear
10:55 AM 85.8 °F 86.1 °F 61.3 °F 44% 30.01 in 6.2 mi SE 10.4 mph - N/A   Clear
11:55 AM 87.3 °F 86.5 °F 58.6 °F 38% 29.99 in 6.2 mi SE 9.2 mph - N/A   Clear
12:55 PM 87.1 °F 86.5 °F 59.0 °F 39% 29.97 in 6.2 mi East 6.9 mph - N/A   Clear
1:55 PM 87.1 °F 85.7 °F 56.3 °F 35% 29.96 in 6.2 mi SE 5.8 mph - N/A   Clear
2:55 PM 87.3 °F 85.5 °F 55.0 °F 33% 29.96 in 6.2 mi ESE 10.4 mph - N/A   Clear
3:55 PM 85.6 °F 84.1 °F 55.4 °F 35% 29.95 in 6.2 mi East 10.4 mph 21.9 mph N/A   Clear
4:55 PM 81.7 °F 82.2 °F 60.1 °F 48% 29.96 in 6.2 mi East 8.1 mph - N/A   Clear
5:55 PM 78.4 °F - 64.8 °F 63% 29.97 in 6.2 mi ENE 8.1 mph - N/A   Clear
6:55 PM 76.6 °F - 62.1 °F 61% 29.99 in 6.2 mi ENE 5.8 mph - N/A   Clear
7:55 PM 74.8 °F - 66.2 °F 74% 29.99 in 6.2 mi ENE 6.9 mph - N/A   Clear
8:55 PM 72.9 °F - 66.9 °F 82% 29.99 in 6.2 mi East 6.9 mph - N/A   Clear
9:55 PM 72.5 °F - 68.2 °F 86% 29.99 in 6.2 mi East 6.9 mph - N/A   Clear
10:55 PM 73.2 °F - 70.3 °F 91% 29.99 in 6.2 mi ESE 6.9 mph - N/A   Clear
11:55 PM 71.8 °F - 70.5 °F 96% 29.98 in 6.2 mi East 5.8 mph - N/A   Clear